Terminal Aerodrome Forecast
Issued by NWS Charleston, WV

Current Version | Previous Version | Text Only | Print | Product List | Glossary Off
Versions: 1 2 3 4 5 6 7 8 9 10 11 12 13 14 15 16 17 18 19 20 21 22

000
FTUS41 KRLX 160100 AAA
TAFEKN
TAF AMD
KEKN 160153Z 1602/1624 00000KT P6SM BKN025
      TEMPO 1602/1606 SCT025
     FM160600 00000KT 3SM BR BKN025
     FM160800 00000KT 1 1/2SM BR BKN025
     FM161100 00000KT 1SM BR SCT001 BKN015
     FM161300 31003KT 3SM BR OVC012
     FM161500 VRB03KT P6SM BKN015
     FM161800 33005KT P6SM BKN035
     FM162100 31004KT P6SM SCT040=

USA.gov is the U.S. government's official web portal to all federal, state and local government web resources and services.